STARLINK-32599, 62048

Orbit data source: Space-Track

STARLINK-32599, 62048 is a payload satellite owned by SpaceX/Seattle (US) in LEO that was launched on Thu, 21 Nov 2024 UTC via an FALCON 9 launch vehicle from the Air Force Eastern Test Range (AFETR). Payload-class satellites include a variety of spacecraft equipped with specific instruments for various scientific and technological missions. These include communications satellites like Starlink; space stations such as the ISS; scientific satellites like the Hubble; Earth observation satellites from companies like Planet Labs, Umbra, and HawkEye 360; GPS; miniature CubeSats for education and research; and military/defense satellites.

Loading next visibility...
Identifier
62048, 2024-216S
Orbit
LEO
Country
Flag of USUS
Related business
Manufacturer
SpaceX/Seattle
Mission
Operational Commercial Communications
Bus & Motor
STARLINK V2M, Unknown motor
Mass
730 kg wet, ~700 kg dry
Launch date (UTC)
2024-11-21 (11 months ago)
Launch vehicle
FALCON 9
Launch site
Air Force Eastern Test Range (AFETR)
Object type
Payload
Rocket body
Debris
Shape & HBR
Box + 2 Pan, 17.7 m
Radar Cross Section
33.884 m², Large (>1 m²)

Expand to show TLE details & history
Last TLE update: 18 hours ago

TLE from 18 hours ago
0 STARLINK-32599
1 62048U 24216S   25299.07431048  .00031768  00000-0  11581-2 0  9992
2 62048  42.9981 303.8481 0001513 181.4850 178.5998 15.27605276 53207
Epoch: 2025-10-26T01:47Z
TLE epoch observation values (Epoch: 2025-10-26T01:47:00.425Z)
Latitude
0.00003°
Longitude
-117.59937°
Altitude
483.786 km
Speed
7.625 km/s
True Right ascension
20h 15m 23s
True Declination
0° 00' 00"
Sunlit
Object was in daylight at epoch
Visualization orbit readout
Latitude
Unknown
Longitude
Unknown
Altitude
Unknown
Speed
Unknown
Apparent Right ascension
Unknown
Apparent Declination
Unknown
Sunlit
N/A
Visualization observer readout
Local Sidereal Time
15:30:43
Azimuth
Unknown
Elevation
Unknown
Doppler factor
Unknown
Orbital elements
Apogee altitude
485.957 km
Perigee altitude
483.881 km
Semi-major axis
6,863.056 km
Eccentricity
0.00015
Inclination
42.9981°
RAAN
303.8481°
Arg. of periapsis
181.485°
True anomaly
178.60022°
Mean anomaly
178.5998°
Eccentric anomaly
178.60001°
Mean motion
3.81739 °/min
Orbital period
94.31 mins
BSTAR
0.0011581
Loading maneuver chart data...
Computing Atmospheric mass density...
Loading historical data...
Loading historical data...
Loading historical data...
Loading historical data...
Loading historical data...
Loading historical data...
Loading historical data...

Documentation

Showing up to 5 results
|